GFSSW_250_spd_159.txt.gz
Wind_Speed
55 55 53 54 57 62 67 69 71 75 76 81 84 85 86 86 85 85 85 84 83 78 78 76 80 80 79 74 75 71 80 84 81 83 86 93 95 98 91 81 75 69 67 66 47
59 61 61 62 64 69 73 74 78 79 84 86 88 89 89 89 92 91 91 92 89 86 85 81 82 83 81 82 79 77 67 78 87 86 87 97 101 100 94 84 80 75 75 69 56
62 66 66 69 72 77 77 82 85 89 89 90 85 79 76 76 80 86 87 90 90 90 90 88 87 84 86 85 85 81 71 68 82 91 92 95 104 101 100 89 86 81 81 73 63
65 70 71 74 76 81 81 88 93 92 90 82 70 63 62 65 68 74 80 87 89 92 95 95 90 91 89 90 89 87 79 73 74 86 94 99 101 105 101 93 90 92 87 80 80
68 73 75 78 81 84 89 93 94 92 85 73 58 48 46 47 54 62 72 78 85 89 94 97 97 96 95 95 95 88 87 82 79 80 87 101 102 109 99 100 98 93 88 89 90
71 76 78 81 85 90 97 102 97 88 79 68 58 47 39 36 41 47 58 69 80 86 91 98 99 100 100 99 99 95 92 89 85 85 89 90 101 103 102 103 102 95 91 94 96
73 77 81 83 88 93 101 104 98 85 73 64 56 45 39 31 30 37 45 54 68 81 88 92 98 101 102 102 100 99 95 94 91 87 94 91 92 91 103 105 103 99 95 97 92
75 78 83 87 89 96 103 106 101 85 73 63 56 47 38 32 26 29 36 45 57 70 84 91 96 101 105 107 103 96 99 99 95 93 93 96 84 85 108 104 103 101 102 96 92
77 80 84 89 92 99 107 108 102 89 74 62 53 48 41 37 30 25 33 41 48 61 73 84 94 99 106 111 107 103 105 104 98 97 97 94 87 86 99 104 101 101 99 99 95
78 82 85 91 96 104 111 111 106 92 75 61 56 50 44 36 32 31 28 36 44 52 65 76 87 99 103 111 112 108 105 104 99 100 101 90 92 97 91 104 103 99 99 96 96
79 83 87 93 98 106 111 117 112 92 77 66 58 52 46 39 32 30 31 32 40 52 60 68 78 89 104 108 121 120 120 111 103 105 105 92 98 103 94 95 105 102 99 97 97
79 84 89 95 100 106 112 120 116 95 81 69 56 52 42 39 37 31 29 29 35 40 51 60 72 84 92 106 115 126 126 118 106 107 103 99 101 105 97 88 97 104 99 97 97
80 84 90 96 101 109 116 121 117 95 87 71 60 57 46 36 30 33 29 27 28 33 44 56 67 77 82 94 106 121 123 120 108 114 106 104 108 111 100 93 90 100 99 96 96
81 87 93 98 104 110 118 123 119 97 88 74 63 59 47 40 36 28 27 26 23 25 40 49 59 66 75 86 101 111 121 121 115 117 110 111 110 111 101 92 85 89 91 95 94
83 89 95 99 106 114 119 124 122 98 89 77 69 63 47 41 36 33 28 21 23 24 31 42 49 62 71 83 95 108 119 124 123 117 116 115 114 109 100 93 86 79 86 88 92
84 89 96 102 107 112 118 123 120 97 91 81 72 64 55 46 37 33 28 22 20 22 26 35 44 54 67 79 91 110 121 126 128 122 121 117 113 113 101 86 81 76 73 80 92
85 89 95 99 104 112 116 122 118 101 93 85 72 63 55 50 43 31 26 21 19 18 21 32 39 49 64 75 88 104 119 128 132 128 119 115 111 108 89 84 81 76 70 69 72
86 90 96 99 105 111 116 121 122 101 92 86 73 61 60 51 44 34 25 20 14 16 20 28 37 48 60 68 83 95 114 128 131 133 117 114 109 101 88 83 82 79 74 72 68
86 91 97 101 105 111 116 124 123 103 91 84 74 65 62 52 44 33 25 17 13 12 16 22 32 45 53 65 81 90 108 124 125 121 117 113 98 99 93 88 84 78 74 71 66
85 90 96 100 105 110 116 124 119 103 91 85 76 67 61 54 44 33 24 16 6 7 12 21 28 42 54 65 76 88 105 121 120 125 122 107 102 101 96 88 81 78 72 67 67
84 89 94 98 104 110 115 121 119 102 92 86 78 68 62 52 43 32 21 12 6 1 9 17 27 42 55 67 74 84 103 115 117 118 111 105 98 92 82 79 73 70 67 67 63
84 88 94 98 103 109 115 119 118 99 90 86 79 67 63 54 45 36 27 16 9 3 9 15 24 35 51 66 78 91 102 107 111 111 107 97 90 90 86 81 74 68 67 60 56
85 90 94 96 100 105 113 120 116 99 86 83 78 65 62 54 47 40 30 19 11 2 9 15 27 39 50 66 77 85 92 101 106 105 101 95 88 88 85 81 71 66 62 59 54
84 88 95 96 99 102 108 115 115 105 86 80 75 62 58 52 47 40 33 20 10 1 11 17 26 37 51 66 80 86 84 91 99 98 93 87 86 82 77 73 65 60 59 59 56
85 88 92 93 99 103 107 113 113 99 85 76 71 60 53 49 45 40 33 20 10 4 10 19 27 40 52 65 75 81 81 87 90 90 86 83 84 77 72 68 62 58 57 56 55
85 87 90 94 98 101 106 111 112 100 81 75 69 62 50 46 39 36 31 18 11 7 6 20 29 38 48 64 68 66 75 83 87 88 87 84 79 73 72 70 65 61 60 57 56
84 87 89 93 96 100 106 109 109 102 84 74 68 62 46 41 36 34 28 21 10 10 8 18 32 40 48 59 63 65 72 77 80 81 79 74 71 68 69 67 62 60 60 59 56

GFSSW_250_spd_162.txt.gz
Wind_Speed
46 48 52 55 57 61 63 64 67 68 74 80 86 89 90 92 93 92 92 92 94 95 93 93 90 85 84 79 79 76 71 70 81 88 90 92 95 96 87 76 73 70 68 63 55
49 51 54 58 62 65 68 69 70 75 84 91 93 92 91 90 89 89 88 91 96 104 102 102 98 91 89 88 80 78 74 68 72 89 91 91 99 99 91 80 76 72 72 67 63
52 54 57 62 66 69 70 73 75 83 93 95 94 89 88 81 75 75 75 77 86 101 112 106 104 96 94 93 91 83 78 77 73 80 91 94 98 100 94 86 81 78 75 75 70
57 58 61 65 69 72 75 78 82 93 96 95 90 81 71 63 61 62 65 67 72 86 104 115 113 107 102 99 93 90 83 85 80 77 80 94 98 102 97 91 85 82 76 75 75
60 61 64 69 72 74 78 81 87 96 97 90 79 66 53 51 51 50 53 60 64 74 90 111 120 115 109 106 99 96 92 91 87 81 78 85 95 106 97 95 91 86 82 78 76
63 65 68 71 73 77 81 84 93 97 93 79 70 60 49 40 40 42 42 51 59 67 80 96 121 123 115 109 104 98 97 96 93 87 82 82 88 100 99 97 94 92 87 83 83
66 68 72 72 74 79 83 90 97 98 88 73 68 59 49 40 33 34 36 43 52 60 72 85 100 117 119 119 108 102 102 101 97 92 86 88 87 82 102 99 95 97 95 92 86
67 71 74 74 77 83 86 95 101 101 89 76 67 55 46 43 37 28 32 36 45 54 64 77 92 104 114 122 115 109 106 107 103 98 93 92 80 79 104 99 97 98 99 94 89
70 74 74 78 82 87 91 99 103 103 91 78 67 54 47 42 35 32 25 30 39 49 59 70 84 98 107 117 119 116 112 112 110 106 100 91 83 85 90 101 100 96 100 99 95
72 75 75 81 86 91 95 102 106 109 93 79 71 56 46 40 36 30 28 24 33 45 54 64 77 89 102 112 118 122 118 117 115 111 105 96 90 91 88 101 102 100 98 100 98
74 74 76 82 86 92 98 104 111 116 93 81 75 57 45 38 33 30 31 22 25 40 51 60 71 84 97 105 114 122 121 119 117 115 108 102 98 99 93 92 99 102 97 100 98
74 75 76 83 88 93 98 105 113 116 93 84 76 61 53 40 34 29 25 27 24 30 44 55 66 77 90 101 109 118 121 119 119 118 111 106 100 104 98 88 99 96 100 97 99
76 76 78 84 91 96 101 107 117 118 93 84 78 67 57 49 37 34 24 22 22 25 34 48 59 69 81 94 103 113 122 122 124 119 113 111 107 110 101 92 94 92 95 98 96
77 76 80 87 93 98 105 110 116 119 95 85 80 69 58 50 45 34 27 19 18 24 31 41 52 59 70 84 97 108 122 128 129 120 117 117 110 112 105 91 87 91 86 89 92
76 76 83 88 94 99 104 110 116 119 100 90 83 75 60 57 50 35 28 29 18 18 26 34 44 60 69 76 89 104 119 129 131 126 121 116 113 114 105 98 87 87 84 86 83
73 77 83 89 94 98 103 109 116 122 106 93 86 78 66 55 49 43 30 26 23 17 20 29 42 51 59 68 80 99 112 126 133 130 127 120 113 118 107 95 82 84 80 73 70
71 77 84 89 94 98 102 108 114 121 114 95 87 82 66 57 52 45 37 28 19 19 16 27 37 44 53 63 75 89 108 123 134 138 125 119 116 115 101 91 82 78 77 74 67
72 78 84 89 93 98 102 107 115 120 118 97 89 84 71 58 47 42 34 29 22 17 13 22 27 37 46 57 66 84 99 117 126 138 125 123 119 113 98 87 82 80 82 79 71
74 80 84 88 93 97 101 106 113 119 120 97 89 84 75 63 51 43 35 30 23 16 13 16 21 30 40 47 60 74 87 108 114 133 128 126 112 108 101 94 89 85 85 81 77
74 80 84 87 91 97 103 108 111 117 118 101 90 84 77 64 55 47 37 33 23 14 10 13 18 25 34 44 54 68 89 96 109 132 134 123 115 109 106 100 92 85 80 77 75
74 79 82 86 91 96 101 108 112 116 118 103 90 85 81 65 57 50 44 35 26 14 7 9 14 21 33 46 55 61 70 82 106 122 129 121 118 109 103 94 83 77 74 74 75
75 77 81 86 91 95 101 105 112 116 116 108 91 86 80 67 58 55 45 39 30 17 7 5 10 16 27 40 49 56 70 81 98 112 121 118 109 103 97 91 81 76 72 74 75
75 78 80 85 89 93 100 106 110 115 117 108 89 82 78 70 57 57 46 38 31 17 8 1 7 14 24 35 43 54 70 79 90 103 113 114 109 99 95 94 87 79 72 72 70
75 75 80 84 88 92 97 103 109 116 117 109 89 81 77 74 59 56 49 39 30 15 8 2 7 11 22 33 45 58 72 77 80 94 103 106 102 96 92 88 83 78 74 71 70
76 77 81 86 90 94 98 102 107 109 113 107 89 79 74 72 57 56 54 40 26 17 8 4 8 15 26 37 50 61 70 66 80 94 97 95 96 92 85 80 74 70 69 68 64
77 77 81 87 90 95 99 103 104 110 106 105 87 77 72 66 58 51 53 37 25 16 6 5 10 17 28 39 52 59 61 65 77 85 94 91 90 88 83 80 74 70 70 68 65
77 79 83 87 91 95 100 102 104 105 106 100 83 73 70 64 58 48 46 38 25 11 5 7 13 23 30 39 48 51 54 64 73 79 81 83 86 80 77 73 69 69 67 66 65

GFSSW_250_spd_165.txt.gz
Wind_Speed
43 44 47 48 49 51 54 58 60 62 66 68 74 80 84 86 89 90 91 90 92 95 97 94 94 93 88 88 87 83 79 75 76 84 88 90 91 89 87 78 71 70 69 66 66
46 48 49 50 52 55 58 60 62 67 70 75 82 87 90 93 92 90 87 84 86 90 98 103 102 101 98 94 94 89 82 77 75 76 90 91 94 91 87 83 75 73 75 68 65
49 51 52 53 56 59 61 61 66 71 76 81 86 88 92 90 86 80 74 71 73 79 90 101 110 109 104 101 99 95 85 83 83 78 79 91 95 93 91 86 84 78 76 73 68
52 53 54 56 60 63 62 65 71 74 81 86 88 89 82 75 69 65 59 62 63 68 78 92 106 115 112 109 105 102 94 87 89 86 80 83 96 97 92 91 88 83 81 77 73
55 56 57 59 63 64 65 71 74 80 84 89 88 79 69 61 55 51 51 53 55 60 68 79 96 113 119 114 109 108 102 94 92 92 87 83 84 100 96 95 91 87 84 84 81
58 58 60 63 66 63 69 74 77 85 90 88 79 68 62 52 47 42 40 50 53 53 62 69 84 101 122 120 116 112 106 99 96 96 93 86 86 96 98 97 94 90 90 88 85
59 60 63 65 67 66 72 75 81 90 94 86 74 66 60 51 46 40 36 39 46 48 56 64 77 91 109 127 121 118 113 106 100 101 96 90 87 77 100 101 96 91 93 92 88
60 62 65 69 66 71 75 79 86 92 96 87 75 67 58 46 43 39 35 30 37 42 48 60 72 86 102 120 127 123 119 112 108 104 99 94 79 89 102 101 101 96 94 96 89
61 64 68 66 69 74 79 83 90 94 99 90 75 67 61 49 39 34 33 29 27 37 43 56 66 81 95 111 132 129 122 116 114 109 104 95 90 87 92 98 102 101 98 93 96
62 66 68 65 71 76 81 87 92 96 104 96 78 71 65 51 46 36 29 30 27 33 41 50 63 74 91 104 125 133 128 121 117 113 106 99 96 94 90 100 99 105 101 93 85
63 66 63 67 73 78 82 89 97 101 108 105 85 73 68 48 44 37 29 28 31 30 38 48 59 71 85 99 113 133 131 125 122 116 110 105 103 97 95 96 96 103 101 97 95
64 65 64 70 75 79 84 92 98 105 110 108 88 78 74 60 51 44 32 27 28 25 34 45 55 65 78 93 108 125 136 131 125 122 113 110 105 103 99 96 99 92 99 99 97
64 63 67 72 77 81 88 95 100 106 111 109 93 81 77 63 57 50 35 24 23 27 28 40 50 59 72 86 101 117 132 136 133 126 117 115 110 108 101 96 99 94 94 99 97
63 63 67 73 78 82 90 96 101 106 111 112 96 84 77 61 54 49 45 28 20 22 25 32 44 53 63 76 92 109 125 137 139 129 123 118 113 111 105 98 99 91 84 91 91
61 65 70 75 78 84 91 97 102 108 112 112 100 88 80 67 55 44 44 36 21 13 20 25 38 48 59 70 85 101 116 134 140 133 125 122 118 113 113 106 99 93 78 80 87
62 67 72 76 79 85 91 96 102 108 113 114 106 90 82 73 57 46 37 36 25 18 13 23 32 45 54 65 76 91 107 124 141 138 130 124 121 118 115 103 94 89 83 77 78
63 68 74 76 79 85 92 97 101 108 112 113 110 91 83 76 59 51 42 32 27 19 13 18 32 40 49 57 69 82 99 114 127 141 132 128 126 117 112 102 94 86 82 76 75
65 69 74 76 80 86 91 97 102 108 113 115 109 91 83 78 62 56 44 35 25 21 13 16 25 34 42 51 63 76 88 103 112 123 127 133 127 121 111 103 95 91 87 80 74
66 71 75 76 81 88 93 98 103 107 113 114 112 90 83 78 67 53 47 43 25 17 17 14 20 27 33 41 49 65 77 95 104 115 130 135 122 120 113 104 101 97 91 88 77
65 71 76 77 82 88 94 101 104 108 113 117 115 94 83 78 73 58 48 41 30 20 16 13 15 21 26 35 42 51 69 80 98 112 121 130 127 125 114 107 103 99 96 86 78
66 71 74 77 82 87 93 100 105 110 112 116 116 98 87 81 74 61 51 44 36 27 17 11 12 16 22 29 37 46 60 70 88 103 107 125 128 125 115 103 101 95 93 85 74
68 70 73 78 83 87 93 98 105 112 114 113 111 99 86 80 74 63 54 44 38 32 23 11 8 12 17 23 29 39 54 67 80 93 104 120 124 123 113 102 95 92 87 81 77
68 70 73 77 81 88 94 99 102 109 115 114 108 96 85 79 73 65 56 45 38 31 24 12 7 7 13 21 28 36 49 63 75 83 100 116 126 120 111 103 93 88 85 80 77
69 69 72 76 82 87 91 96 101 107 112 118 108 97 84 76 72 65 55 47 41 34 22 12 4 4 11 20 28 36 48 56 67 78 93 112 120 114 109 100 94 92 85 77 72
71 72 74 78 84 87 92 95 100 102 109 113 108 96 82 70 66 59 48 45 41 34 24 15 8 2 9 17 27 33 45 56 62 74 89 104 116 112 105 98 92 85 82 82 77
72 74 76 78 83 89 92 95 98 105 107 108 103 93 82 71 64 57 45 42 36 30 25 17 10 8 12 14 21 33 41 47 61 71 88 100 108 113 107 98 87 81 79 79 76
73 75 78 79 84 88 92 95 98 101 107 104 100 89 81 71 65 54 43 36 32 27 22 15 11 10 13 13 18 25 32 41 53 65 81 91 96 99 102 91 82 80 80 80 79

GFSSW_250_spd_168.txt.gz
Wind_Speed
41 43 42 43 44 45 45 48 51 51 52 58 63 67 74 78 80 82 83 85 87 88 91 92 92 88 86 88 86 89 83 77 75 86 92 93 91 88 84 81 73 72 70 68 68
44 45 46 47 47 47 49 52 51 52 59 63 69 75 80 83 84 85 86 87 89 92 95 98 102 101 97 93 92 90 88 84 83 84 92 96 96 94 89 85 82 77 74 75 70
45 47 50 49 49 50 52 52 52 58 63 70 75 80 81 84 85 86 81 79 81 84 89 99 104 110 108 105 99 95 91 94 90 84 89 98 98 96 91 87 86 85 83 77 74
47 49 50 51 51 53 52 52 57 62 68 73 79 83 83 82 78 72 67 65 67 69 74 81 93 108 115 112 110 104 97 98 93 93 90 92 103 97 94 94 96 84 81 81 78
49 49 49 51 51 51 51 57 61 65 72 77 80 81 77 69 62 58 54 54 55 59 63 70 78 91 107 115 116 110 105 102 100 98 95 92 94 103 99 97 95 91 88 86 81
49 50 50 52 53 51 56 61 63 70 76 81 79 77 69 62 58 51 46 43 47 52 55 60 72 80 93 109 115 117 112 106 105 103 100 95 94 101 102 102 99 95 92 90 86
49 51 52 55 52 55 60 64 68 75 80 82 82 77 67 60 56 48 43 42 39 41 51 54 60 72 84 100 113 120 117 111 110 106 103 100 95 89 106 103 99 95 94 92 90
49 53 55 53 53 59 63 66 72 79 83 87 87 78 66 60 55 46 42 38 38 35 43 52 54 65 75 88 107 121 124 118 113 110 108 102 94 96 102 106 104 100 96 94 94
52 55 53 52 57 62 65 68 74 81 87 91 94 81 70 64 59 45 36 31 34 40 38 46 51 60 70 79 97 115 128 123 118 114 111 104 102 100 99 100 106 103 99 95 95
54 52 50 54 59 64 67 73 76 86 91 97 100 86 72 67 63 50 42 32 30 36 39 40 46 54 65 75 92 110 128 128 124 117 115 110 106 103 101 96 102 105 102 97 93
52 51 52 56 61 66 69 75 80 88 95 99 103 91 75 69 64 52 46 37 26 32 33 37 40 48 59 70 83 103 121 131 129 123 119 116 110 105 103 101 101 102 103 99 94
53 50 53 59 63 68 72 79 85 90 97 102 103 94 77 69 67 55 48 42 33 31 28 29 35 41 53 66 79 97 116 132 131 126 123 117 110 108 105 101 98 96 102 101 96
53 49 55 61 66 70 74 81 87 92 98 103 105 98 81 70 67 58 54 44 35 27 26 24 29 36 48 62 75 91 111 129 136 130 126 120 114 110 104 103 102 96 94 99 97
53 50 56 63 67 69 76 83 88 95 99 105 107 101 84 71 68 58 54 49 39 22 21 22 24 33 42 57 73 86 105 121 136 134 128 125 115 109 107 105 102 98 89 92 93
51 52 58 64 67 71 77 85 91 98 102 106 110 105 90 75 70 63 54 49 41 28 15 20 23 32 39 50 66 80 96 113 133 138 133 126 120 112 112 109 104 98 93 88 91
49 53 60 66 68 72 78 85 92 98 104 109 113 107 93 78 72 66 54 48 39 34 22 16 23 29 36 45 61 75 89 105 127 140 136 129 125 119 114 105 100 95 92 87 85
49 55 61 66 68 73 79 86 90 98 105 109 113 113 95 82 72 67 55 45 34 30 27 18 19 26 34 42 53 70 81 97 117 135 133 131 131 125 110 104 99 94 91 88 83
52 57 63 67 70 75 81 87 91 98 103 111 113 116 97 85 75 68 58 48 35 26 27 18 18 23 29 38 48 62 76 87 103 120 134 135 128 125 115 110 103 98 96 92 88
55 60 64 68 72 77 82 86 92 97 102 108 114 116 100 87 75 70 61 47 38 27 22 20 14 17 25 32 40 52 69 80 92 109 135 139 127 127 122 112 106 100 98 97 96
57 62 66 70 73 78 83 88 94 98 102 108 113 116 101 91 78 71 64 53 42 29 18 15 15 14 17 26 35 44 58 74 88 104 121 133 127 130 125 117 108 102 99 99 97
60 64 68 72 74 78 84 89 96 99 103 107 113 117 111 93 79 74 68 58 46 30 20 13 12 12 15 23 31 40 47 66 83 93 107 118 127 126 125 116 109 102 100 98 95
64 68 70 73 75 77 84 88 94 100 105 107 111 115 112 95 82 74 67 60 51 32 25 18 12 12 15 17 27 35 42 48 60 76 91 111 128 131 124 116 108 104 100 97 94
65 68 71 74 74 79 84 89 93 98 103 107 110 113 106 98 81 73 67 60 53 39 29 20 12 10 9 14 19 26 35 45 57 73 84 99 120 131 127 116 109 104 101 98 94
66 71 72 73 74 78 83 88 93 97 100 107 109 111 101 97 83 73 65 59 53 38 28 21 11 5 5 9 16 23 32 43 57 66 76 90 111 125 125 117 112 108 102 96 87
71 74 76 75 75 78 82 87 92 92 97 102 110 110 104 93 79 69 60 55 50 38 29 22 14 9 6 4 12 21 31 40 50 64 72 88 103 122 129 123 116 105 98 89 85
75 76 76 75 78 80 83 87 90 94 95 101 107 110 106 96 80 68 61 54 45 32 29 23 17 15 15 6 10 16 27 37 44 53 66 78 98 108 117 119 109 105 93 87 86
79 81 80 77 80 81 84 87 88 92 95 97 101 106 101 94 79 68 60 51 42 28 23 21 19 21 20 21 15 10 19 31 44 54 64 75 89 100 102 105 110 107 96 85 83

GFSSW_250_spd_171.txt.gz
Wind_Speed
39 39 38 39 43 42 41 40 42 42 40 44 49 54 60 66 72 74 77 78 81 83 84 85 85 87 86 87 88 88 80 71 73 76 85 91 89 90 92 87 82 76 81 68 71
37 37 39 43 43 42 42 42 40 40 44 46 52 58 66 72 76 79 79 81 82 85 88 90 92 92 92 92 93 91 86 82 82 84 85 95 94 95 95 92 88 80 82 69 76
37 40 43 43 44 43 43 41 40 45 46 51 56 64 70 74 76 80 78 78 81 83 87 92 97 99 100 100 98 95 90 91 90 91 93 91 97 98 95 96 90 90 83 81 79
41 43 44 42 43 43 43 41 45 47 52 57 64 69 73 75 75 76 75 69 66 67 71 77 87 102 108 105 107 100 97 96 97 97 94 90 93 100 98 97 96 98 91 83 79
42 43 42 44 43 42 41 45 50 50 58 63 70 76 73 74 73 69 62 58 56 56 59 65 73 82 99 115 113 108 103 102 103 100 92 94 93 96 103 100 103 96 87 82 85
41 42 44 45 43 41 45 50 52 57 64 68 75 78 74 72 65 59 54 50 46 46 49 56 65 73 82 100 117 117 112 108 106 102 98 98 100 99 99 103 101 94 93 93 89
40 43 45 44 43 43 48 54 55 61 65 73 81 82 76 71 63 54 50 45 41 40 42 49 55 65 75 89 105 121 122 116 110 107 101 105 107 97 97 107 101 98 100 97 92
41 45 46 44 43 47 51 56 58 64 69 77 87 88 81 71 64 54 50 40 36 37 42 45 50 58 67 78 92 108 125 123 117 115 109 110 101 100 104 100 103 104 101 97 95
42 46 47 46 45 51 55 57 62 66 74 81 90 94 84 73 65 57 52 41 35 35 40 46 45 51 55 68 81 96 113 127 125 118 117 112 106 109 107 105 100 102 103 102 99
45 46 49 44 47 53 58 61 68 73 77 84 93 97 89 75 66 60 57 46 35 35 31 41 40 39 47 57 67 85 105 120 128 127 123 115 114 117 113 109 101 101 107 106 104
46 49 48 45 51 57 59 61 66 71 79 87 96 102 100 83 72 63 59 52 42 34 30 32 33 34 38 48 61 69 94 110 128 132 130 123 119 118 115 109 106 101 98 103 102
47 50 45 47 53 59 62 66 72 78 84 90 98 102 102 92 78 67 62 56 50 34 28 25 25 27 33 42 55 70 83 101 118 134 135 131 123 120 119 112 105 102 97 98 104
49 49 43 49 55 61 65 70 74 79 85 92 98 105 109 99 87 72 66 60 55 44 28 25 19 21 30 38 52 64 76 91 108 133 134 130 124 121 118 112 109 106 103 96 95
49 43 45 50 57 62 66 70 77 82 87 89 97 104 108 101 87 76 69 63 53 50 38 28 22 19 25 35 46 58 71 85 102 121 134 132 124 115 116 111 109 103 99 93 89
43 41 46 53 59 65 69 72 78 83 91 95 99 107 109 106 92 81 72 64 56 50 44 29 23 20 20 30 40 52 64 80 98 115 136 134 128 119 120 116 111 105 98 95 89
38 43 49 55 60 65 69 72 79 85 90 97 100 105 110 110 96 84 73 65 57 47 40 34 22 22 20 27 36 44 60 76 94 112 132 133 126 122 121 117 112 106 101 95 93
41 46 52 58 64 68 70 73 78 84 91 97 101 105 109 111 102 87 77 68 54 46 37 36 25 20 21 26 33 44 54 74 90 108 122 131 127 123 119 113 110 104 100 96 95
46 51 55 61 66 70 72 73 80 85 90 96 100 104 106 109 108 91 79 72 59 50 38 35 24 20 20 24 31 41 54 69 86 99 114 131 131 128 119 118 112 107 103 100 96
52 55 58 63 68 73 74 76 80 85 88 92 98 103 108 109 111 93 78 72 60 49 37 32 24 16 19 22 28 38 51 68 81 97 114 130 130 130 121 112 113 111 108 106 101
56 59 62 66 69 73 77 77 81 86 89 93 96 100 106 109 112 99 83 72 58 45 35 26 21 14 13 19 26 34 48 61 75 91 107 121 130 131 122 118 115 113 110 105 102
59 60 62 65 69 74 77 79 82 87 90 94 98 101 105 109 111 103 86 73 60 48 38 28 21 13 8 14 19 28 39 50 72 86 102 114 126 132 123 119 115 113 108 108 103
61 64 64 69 73 75 77 79 83 88 92 94 97 101 104 105 110 105 87 75 60 49 40 30 23 16 7 9 15 21 33 46 61 75 88 103 123 131 125 122 118 113 110 107 99
64 63 68 73 75 80 80 80 82 86 92 95 97 100 107 109 107 103 85 73 62 51 39 27 19 13 7 6 13 19 28 39 52 68 84 101 109 126 129 123 118 112 110 107 92
67 68 72 75 75 77 78 80 81 87 91 96 96 98 101 107 111 104 86 69 62 50 40 29 18 12 8 4 8 16 25 35 51 61 70 83 106 117 130 127 119 115 113 102 100
74 76 77 81 82 81 80 81 85 84 90 93 96 98 100 104 107 100 82 65 56 43 31 22 16 10 10 5 2 12 22 34 44 51 66 77 100 111 123 128 123 117 110 106 100
82 83 86 84 85 85 86 85 85 89 88 92 95 98 100 102 102 96 82 62 53 41 31 22 9 7 9 7 6 4 15 26 38 50 67 81 94 103 112 120 125 125 113 105 95
88 88 89 91 91 92 91 90 88 87 89 89 91 95 97 98 97 90 77 59 51 39 29 17 13 21 20 18 10 6 8 17 31 44 61 70 88 97 98 115 123 110 106 102 95

GFSSW_250_spd_174.txt.gz
Wind_Speed
34 35 34 36 38 38 38 37 36 36 36 36 39 41 46 52 59 67 71 71 75 75 75 77 78 79 82 83 84 84 81 73 73 72 76 83 87 89 88 89 84 88 87 78 67
34 34 36 38 39 38 38 37 36 34 35 39 41 45 50 55 66 76 74 77 78 78 79 81 84 85 87 88 89 89 86 80 82 82 81 85 88 93 95 88 89 95 90 79 73
33 35 36 38 38 39 38 36 33 34 38 39 44 48 56 65 74 76 80 78 78 78 79 81 84 90 94 96 96 95 87 88 89 89 88 89 91 96 97 93 93 98 87 82 79
35 36 35 37 40 40 36 34 34 38 38 43 47 54 61 73 72 74 76 75 72 70 73 76 82 89 95 99 102 102 94 92 95 97 97 94 95 96 93 92 98 100 92 87 84
37 36 35 39 40 38 36 35 38 41 44 47 53 59 68 72 71 67 65 64 62 61 62 63 67 74 86 98 108 106 104 101 101 102 101 102 96 93 91 93 101 99 95 89 88
37 36 35 40 38 39 35 38 42 44 48 53 59 64 73 76 72 65 62 56 53 50 51 53 58 64 72 84 100 112 112 110 106 106 107 107 102 101 90 89 103 101 91 90 88
37 36 37 39 41 39 37 42 46 48 52 56 63 69 79 84 79 67 60 52 46 44 44 43 50 55 63 73 87 102 117 117 115 112 112 109 110 102 94 95 100 96 93 92 88
39 36 39 41 42 37 40 45 50 51 54 59 68 74 84 87 86 71 61 51 45 40 38 43 46 48 57 66 78 91 107 123 122 121 116 117 107 100 100 100 103 95 99 96 97
38 38 41 44 41 37 43 49 54 53 57 62 70 76 86 91 95 80 66 54 48 43 35 38 45 47 49 59 69 80 93 114 126 125 125 121 106 102 108 107 106 99 97 101 96
38 41 44 45 38 39 46 53 56 59 61 65 73 77 84 91 96 93 73 63 55 48 39 34 35 40 45 40 56 75 86 100 120 128 129 121 110 112 111 112 108 103 95 102 100
42 45 47 42 37 41 48 54 56 57 63 70 74 84 88 93 98 102 81 71 61 51 45 33 30 33 37 37 46 63 72 89 104 124 127 123 116 116 113 113 111 106 99 99 102
47 49 43 36 40 46 53 58 61 63 69 75 81 85 90 98 101 103 91 77 65 54 46 40 28 27 29 32 40 53 65 78 96 111 126 124 123 120 118 115 115 110 103 99 99
48 40 34 38 43 49 55 60 64 68 71 75 83 87 93 98 103 106 99 81 69 57 48 46 28 23 22 29 35 46 59 71 84 100 116 127 124 125 123 118 118 113 105 107 99
37 35 39 43 47 53 57 64 68 73 74 78 80 88 94 99 101 106 104 86 73 62 51 44 31 21 18 24 31 41 56 67 79 97 109 123 130 126 128 122 118 112 107 102 93
41 43 45 48 52 57 61 64 71 75 81 82 86 90 94 98 102 105 107 89 74 66 55 47 36 23 19 20 29 40 49 57 73 89 103 115 132 129 125 119 117 111 106 102 99
42 47 49 51 54 57 61 66 71 77 79 85 89 94 98 100 103 106 106 93 78 68 56 47 38 29 20 18 24 33 43 57 72 86 94 107 122 126 126 119 113 108 105 105 99
46 49 53 55 58 61 63 68 72 76 81 84 89 93 96 99 102 105 107 97 81 69 55 42 36 28 22 17 19 27 37 51 64 71 77 97 108 126 125 119 115 110 106 103 97
50 50 53 56 59 62 65 69 75 80 81 84 89 94 97 97 102 105 106 101 82 71 57 43 32 26 18 18 16 24 34 47 56 64 75 92 101 123 129 125 118 114 111 107 98
53 56 60 62 64 69 73 77 79 80 80 83 88 92 98 100 101 105 106 101 80 70 54 44 38 25 17 16 16 22 34 43 52 64 73 84 93 117 129 129 123 118 114 106 99
57 59 64 67 68 71 76 79 79 81 84 89 91 93 97 99 100 103 104 99 83 70 56 45 35 25 15 14 15 22 34 38 51 60 72 78 94 109 128 131 123 119 113 104 101
66 69 71 74 76 79 81 85 89 88 90 90 93 95 97 99 100 101 102 98 82 71 55 42 33 22 12 10 11 18 25 35 45 58 68 81 94 106 122 129 121 116 112 104 103
74 76 79 83 86 87 87 90 92 95 95 95 95 96 97 97 99 99 97 92 78 67 55 47 37 29 10 3 6 13 23 31 40 52 62 76 93 107 120 120 122 116 109 105 103
76 80 79 80 83 85 90 92 93 96 98 97 96 95 95 96 91 92 91 86 74 61 52 43 38 25 13 5 1 8 18 27 38 48 63 76 94 103 107 121 122 117 108 107 102
80 80 84 87 87 90 90 94 97 100 100 97 96 93 90 91 93 92 87 82 70 56 49 39 36 22 17 9 2 5 15 24 36 47 64 71 87 97 102 121 127 124 116 105 104
84 86 86 86 91 95 94 95 97 99 98 95 94 90 88 85 87 86 83 78 67 51 45 36 25 13 7 9 7 4 14 25 33 42 56 74 83 95 97 115 126 124 119 113 105
83 85 89 93 93 96 94 96 92 90 90 88 86 85 83 82 80 79 76 71 64 47 40 34 21 10 13 11 6 3 8 20 31 42 57 73 80 90 92 106 120 120 116 108 92
93 95 94 96 98 99 93 88 83 82 82 82 78 76 75 74 74 73 70 64 58 44 36 23 19 13 9 13 14 7 5 15 25 36 45 57 67 80 81 98 117 119 108 90 88